Date,TemperatureHighF,TemperatureAvgF,TemperatureLowF,DewpointHighF,DewpointAvgF,DewpointLowF,HumidityHigh,HumidityAvg,HumidityLow,PressureMaxIn,PressureMinIn,WindSpeedMaxMPH,WindSpeedAvgMPH,GustSpeedMaxMPH,PrecipitationSumIn
2013-1-1,26.8,22.2,14.5,20.1,11.6,-17.0,77,65,22,30.24,30.06,13,7,0,0.00
2013-1-2,36.0,22.4,9.9,26.8,1.1,-64.0,77,53,1,30.23,30.08,15,4,0,0.00
2013-1-3,35.1,24.9,16.3,23.9,7.7,-64.8,77,58,1,30.40,30.22,14,4,0,0.00
2013-1-4,48.9,30.0,13.8,31.6,13.9,-42.3,76,54,5,30.36,30.17,11,4,0,0.00
2013-1-5,48.7,38.4,31.5,33.0,28.4,21.2,76,67,52,30.20,30.03,14,8,0,0.00
2013-1-6,52.7,35.9,26.1,27.2,22.9,19.0,75,61,36,30.35,30.20,7,4,0,0.00
2013-1-7,53.6,39.3,28.4,30.1,25.1,19.6,70,57,40,30.20,29.94,16,7,0,0.00
2013-1-8,57.2,42.0,32.2,37.7,30.9,23.5,75,65,47,30.13,29.88,14,6,0,0.00
2013-1-9,54.3,41.4,28.9,37.9,29.3,13.9,76,62,49,30.34,30.15,14,6,0,0.00
2013-1-10,49.6,45.3,41.5,37.2,-35.5,-52.2,75,12,1,30.15,29.67,12,5,0,0.58
2013-1-11,60.3,51.3,42.3,50.9,15.9,-50.4,78,47,1,29.76,29.47,17,9,0,0.01
2013-1-12,41.4,28.3,21.2,33.4,17.9,8.8,77,64,57,30.05,29.77,21,14,0,0.00
2013-1-13,27.7,19.7,12.7,10.1,7.1,4.2,69,58,43,30.29,30.02,24,10,0,0.00
2013-1-14,33.8,22.2,13.1,13.2,9.9,6.4,74,60,41,30.42,30.26,11,3,0,0.00
2013-1-15,36.1,24.6,16.0,14.7,11.7,8.9,73,59,39,30.29,30.13,10,2,0,0.00
2013-1-16,52.3,31.4,16.0,33.7,21.0,8.9,76,66,49,30.16,30.00,8,3,0,0.00
2013-1-17,58.5,40.5,29.3,35.5,29.4,21.7,76,66,41,30.45,30.17,11,5,0,0.00
2013-1-18,59.2,43.7,31.6,36.5,31.3,24.9,76,63,42,30.36,29.99,19,9,0,0.00
2013-1-19,63.1,44.0,32.9,35.9,30.1,25.2,76,61,27,30.18,29.97,11,4,0,0.00
2013-1-20,54.7,38.0,25.7,30.7,23.6,7.8,76,57,39,30.30,30.10,21,8,0,0.00
2013-1-21,40.5,27.1,16.9,17.5,12.3,7.2,67,54,39,30.37,30.20,16,4,0,0.00
2013-1-22,49.8,29.8,16.2,25.3,17.0,8.2,75,60,37,30.23,30.09,9,3,0,0.00
2013-1-23,64.2,38.4,19.0,37.4,24.5,4.7,76,59,36,30.26,30.05,21,4,0,0.00
2013-1-24,30.9,25.0,21.2,18.7,5.0,-63.3,74,54,1,30.29,30.05,20,8,0,0.00
2013-1-25,52.0,35.6,21.4,29.1,22.4,-10.4,77,60,22,30.20,30.06,8,2,0,0.00
2013-1-26,58.3,44.0,30.2,39.2,32.0,23.2,76,64,42,30.17,29.94,14,5,0,0.00
2013-1-27,68.5,53.7,42.6,58.0,6.5,-51.2,77,38,1,29.93,29.64,20,10,0,0.00
2013-1-28,74.1,62.4,50.7,61.6,24.2,-46.5,77,46,1,29.76,29.55,21,10,0,0.00
2013-1-29,65.5,44.4,33.8,54.7,28.4,-56.9,77,59,1,29.60,29.44,18,11,0,0.00
2013-1-30,34.3,28.6,19.9,28.2,19.5,12.0,82,69,51,29.93,29.54,32,15,0,0.00
2013-1-31,31.6,22.7,15.6,23.1,13.4,5.6,77,67,52,30.39,29.89,24,7,0,0.00
2013-2-1,37.0,23.7,9.9,14.7,9.1,2.8,75,55,35,30.37,30.08,11,4,0,0.00
2013-2-2,56.1,41.0,25.5,37.1,26.5,13.3,76,57,40,30.22,30.08,17,7,0,0.00
2013-2-3,58.5,45.9,26.8,32.5,27.3,19.8,76,50,31,30.22,29.77,14,6,0,0.00
2013-2-4,56.5,45.9,30.7,34.0,31.4,23.4,76,58,41,29.90,29.72,16,6,0,0.00
2013-2-5,67.3,44.8,24.4,35.3,21.8,-51.7,77,44,2,29.98,29.85,13,3,0,0.00
2013-2-6,58.8,50.3,38.7,51.6,22.6,-43.8,77,54,1,29.97,29.75,13,6,0,0.00
2013-2-7,55.4,49.4,38.7,48.0,12.0,-49.5,79,43,1,30.14,29.75,23,9,0,0.27
2013-2-8,50.5,36.0,27.0,36.9,9.2,-61.2,78,53,1,30.28,30.06,11,5,0,0.00
2013-2-9,51.1,40.1,32.9,41.7,13.9,-53.3,79,52,1,30.06,29.55,18,8,0,0.02
2013-2-10,51.3,44.0,35.2,39.2,12.1,-50.9,79,46,1,29.99,29.43,32,14,0,0.01
2013-2-11,49.6,36.6,28.8,25.2,22.5,20.7,74,58,35,30.16,29.99,16,6,0,0.00
2013-2-12,42.1,35.1,30.7,31.6,19.0,-58.9,76,59,1,30.09,29.92,8,3,0,0.00
2013-2-13,59.2,39.1,22.1,35.6,4.1,-64.0,79,40,1,29.94,29.80,17,6,0,0.00
2013-2-14,50.4,40.0,25.9,35.1,28.2,15.1,77,63,50,30.21,29.85,19,8,0,0.00
2013-2-15,40.6,31.6,21.4,21.9,17.3,12.9,76,57,38,30.36,30.22,21,10,0,0.00
2013-2-16,48.7,32.9,15.8,30.3,19.8,8.9,76,60,40,30.31,29.93,19,5,0,0.00
2013-2-17,70.2,47.8,25.7,38.4,20.2,-62.0,78,43,1,29.93,29.50,18,6,0,0.00
2013-2-18,55.4,47.0,34.0,43.2,31.0,19.5,76,54,42,30.07,29.38,36,18,0,0.00
2013-2-19,50.0,34.4,23.5,22.8,18.0,11.8,74,53,34,30.28,30.08,14,6,0,0.00
2013-2-20,32.5,28.8,24.3,23.0,-19.4,-62.9,78,24,1,30.19,29.92,14,8,0,0.00
2013-2-21,33.1,25.0,15.1,10.5,-34.6,-62.9,72,20,1,29.92,29.60,17,2,0,0.00
2013-2-22,28.4,17.9,10.0,20.2,10.3,-5.8,80,72,43,30.06,29.83,0,0,0,0.00
2013-2-23,36.3,21.6,5.0,29.0,13.2,-4.9,78,70,53,30.04,29.83,8,2,0,0.27
2013-2-24,50.4,36.9,24.3,37.1,28.5,18.4,78,72,60,29.83,29.68,12,6,0,0.01
2013-2-25,50.2,36.1,31.5,46.8,-12.0,-58.4,93,37,1,29.78,29.56,28,16,0,0.05
2013-2-26,34.9,31.8,28.2,28.8,16.6,-57.5,85,70,1,29.85,29.62,24,13,0,0.00
2013-2-27,38.1,31.9,27.3,28.1,23.3,-7.2,85,72,19,30.11,29.84,26,13,0,0.00
2013-2-28,35.1,31.6,26.4,28.6,26.0,21.7,84,80,76,30.18,30.10,20,11,0,0.00
2013-3-1,33.6,30.3,23.2,26.5,23.6,18.0,84,76,64,30.28,30.15,19,9,0,0.00
2013-3-2,44.4,29.8,18.0,28.1,20.9,12.9,83,71,46,30.31,30.08,7,2,0,0.00
2013-3-3,59.9,43.9,28.0,42.8,33.4,23.5,84,68,53,30.07,29.52,11,5,0,0.00
2013-3-4,51.3,44.0,38.1,41.3,36.8,32.4,85,76,64,30.00,29.46,27,12,0,0.05
2013-3-5,41.7,35.4,28.8,33.5,22.4,16.8,83,59,50,30.33,30.00,29,15,0,0.00
2013-3-6,49.6,35.9,23.5,28.5,22.8,17.3,83,60,43,30.37,30.11,10,4,0,0.00
2013-3-7,68.0,49.5,33.1,35.1,29.7,24.0,73,49,27,30.11,29.91,20,9,0,0.00
2013-3-8,60.4,52.6,44.8,49.4,41.6,32.0,82,67,53,30.02,29.81,22,10,0,0.00
2013-3-9,60.3,55.0,42.3,56.7,16.0,-44.5,95,52,1,29.83,29.47,17,8,0,1.62
2013-3-10,42.3,33.5,28.6,34.3,28.1,22.5,95,81,54,29.98,29.53,34,19,0,0.00
2013-3-11,49.6,34.3,23.4,29.0,22.0,16.5,85,63,36,29.97,29.88,20,9,0,0.00
2013-3-12,52.5,44.3,35.2,38.6,28.9,22.3,88,55,43,30.30,29.95,20,7,0,0.00
2013-3-13,57.6,42.1,24.3,34.1,27.5,16.9,93,59,37,30.39,30.19,13,4,0,0.00
2013-3-14,79.7,54.9,36.9,52.0,41.0,28.0,85,61,37,30.19,29.99,14,5,0,0.00
2013-3-15,81.0,61.1,41.2,56.3,49.0,32.2,95,68,38,30.01,29.61,12,4,0,0.00
2013-3-16,58.5,48.3,38.5,51.4,40.5,31.6,91,75,61,29.90,29.63,25,15,0,0.00
2013-3-17,41.7,38.0,35.2,39.3,33.9,25.2,94,85,61,29.91,29.60,25,9,0,0.00
2013-3-18,57.4,45.0,37.8,39.2,29.4,21.2,94,57,27,29.96,29.66,19,9,0,0.00
2013-3-19,59.5,43.8,30.2,35.3,25.3,19.5,91,51,28,30.20,29.95,13,6,0,0.00
2013-3-20,47.7,36.3,31.3,32.6,24.4,16.4,93,64,32,30.35,29.94,16,5,0,0.00
2013-3-21,49.3,39.8,34.0,32.2,24.1,19.2,92,55,37,29.94,29.63,21,11,0,0.00
2013-3-22,52.5,38.5,31.5,38.4,29.1,-58.4,96,76,1,29.88,29.75,14,8,0,0.00
2013-3-23,36.7,34.3,31.6,34.7,11.6,-58.3,95,50,1,29.87,29.73,21,10,0,0.12
2013-3-24,33.3,29.0,24.4,25.8,11.4,-59.9,98,63,1,30.09,29.81,32,19,0,0.00
2013-3-25,33.4,28.8,23.7,23.5,18.9,17.0,82,67,53,30.32,30.09,26,14,0,0.00
2013-3-26,51.8,29.3,18.0,29.8,21.0,13.5,95,74,42,30.36,30.15,8,2,0,0.00
2013-3-27,67.3,53.3,38.5,41.3,34.9,25.6,67,51,37,30.07,29.99,18,6,0,0.00
2013-3-28,73.6,54.0,35.8,52.1,42.6,32.5,97,68,47,30.09,29.98,9,3,0,0.00
2013-3-29,75.6,61.2,47.3,60.9,52.6,25.0,98,75,41,30.07,29.95,12,4,0,0.00
2013-3-30,81.0,62.2,53.6,64.4,50.0,-43.7,98,70,1,29.95,29.78,16,5,0,0.20
2013-3-31,64.0,54.2,46.8,57.8,45.5,-48.9,98,80,1,29.98,29.85,28,9,0,0.02
2013-4-1,44.4,40.2,38.5,36.7,32.8,28.7,93,76,63,30.19,30.03,21,11,0,0.00
2013-4-2,35.1,34.1,33.8,32.2,30.9,29.6,93,88,80,30.18,30.17,12,8,0,0.06
2013-4-3,41.4,38.5,37.0,38.0,34.9,27.9,97,88,59,30.25,30.15,14,7,0,0.00
2013-4-4,61.5,47.0,36.9,45.7,40.4,28.0,97,80,54,30.17,30.03,10,4,0,0.00
2013-4-5,66.2,52.1,34.0,50.0,37.7,-56.8,97,64,1,30.09,29.75,17,6,0,0.00
2013-4-6,76.1,62.6,54.1,55.3,49.6,45.4,88,65,36,29.79,29.65,19,10,0,0.00
2013-4-7,72.5,58.8,48.4,67.2,52.0,23.2,98,81,23,29.79,29.57,18,5,0,0.51
2013-4-8,73.6,65.6,59.2,66.3,43.8,-41.3,95,64,1,29.61,29.49,15,8,0,0.00
2013-4-9,76.3,58.6,32.7,66.8,54.2,3.1,94,86,27,29.86,29.48,35,14,0,0.20
2013-4-10,34.2,31.7,30.6,-2.1,-49.7,-58.9,22,3,1,29.94,29.80,27,6,0,0.16
2013-4-11,55.6,38.9,28.4,37.1,12.6,-60.3,70,46,1,29.88,29.64,18,7,0,0.12
2013-4-12,58.8,43.8,31.6,40.4,30.8,10.1,69,60,40,29.96,29.77,14,6,0,0.00
2013-4-13,74.1,58.8,37.0,55.6,34.7,-55.0,69,50,1,29.98,29.53,16,7,0,0.00
2013-4-14,74.8,64.1,57.2,60.4,47.6,31.6,68,56,28,29.65,29.39,21,11,0,0.00
2013-4-15,57.6,53.2,46.9,39.7,34.0,30.1,58,48,36,29.87,29.65,24,12,0,0.00
2013-4-16,48.7,45.3,43.0,40.1,28.7,-51.2,72,61,1,29.98,29.83,22,13,0,0.01
2013-4-17,46.9,45.7,43.5,-48.8,-49.6,-50.9,1,1,1,29.79,29.60,17,10,0,0.12
2013-4-18,40.1,37.8,34.2,33.7,32.9,32.5,98,83,74,29.91,29.77,24,20,0,0.00
2013-4-19,62.4,56.0,30.9,38.1,34.5,26.6,84,45,38,30.04,29.92,27,11,0,0.00
2013-4-20,65.8,55.9,37.8,43.2,39.3,31.3,78,55,41,30.04,29.90,17,8,0,0.00
2013-4-21,70.2,63.0,52.5,48.6,46.9,42.6,73,57,45,30.09,29.97,19,10,0,0.00
2013-4-22,95.5,66.0,51.6,94.8,57.1,46.2,98,74,59,29.99,29.72,27,11,0,0.76
2013-4-23,58.6,37.0,32.2,58.0,36.5,31.7,98,98,98,30.15,29.91,30,19,0,0.95
2013-4-24,61.0,44.1,28.0,55.8,42.9,27.5,98,96,83,30.22,30.14,10,5,0,0.00
2013-4-25,68.4,60.5,33.1,66.3,59.6,32.6,98,97,91,30.22,29.97,16,9,0,0.00
2013-4-26,58.5,52.3,50.2,57.9,51.8,49.7,98,98,98,30.08,29.99,16,6,0,0.83
2013-4-27,71.6,60.3,49.8,71.0,59.7,49.3,98,98,98,30.06,29.94,9,4,0,0.00
2013-4-28,84.0,63.2,44.6,83.4,62.7,44.1,98,98,98,29.94,29.70,14,6,0,0.00
2013-4-29,84.6,66.4,55.2,84.0,65.8,54.6,98,98,98,29.71,29.54,16,6,0,0.00
2013-4-30,85.1,77.8,62.2,84.5,77.2,61.6,98,98,98,29.70,29.59,21,11,0,0.00
2013-5-1,79.2,57.1,39.4,78.6,56.6,38.9,98,98,98,30.17,29.69,33,15,0,0.01
2013-5-2,48.9,40.7,35.4,48.4,40.2,34.9,98,98,98,30.41,30.17,31,18,0,0.86
2013-5-3,57.0,46.4,36.3,56.2,45.7,35.8,98,97,93,30.31,29.93,25,11,0,0.00
2013-5-4,47.7,43.6,41.0,47.2,43.1,40.5,98,98,98,30.03,29.84,26,14,0,0.00
2013-5-5,59.9,50.2,42.4,59.3,49.7,41.9,98,98,98,30.10,30.01,15,8,0,0.00
2013-5-6,75.2,55.9,43.7,74.6,55.4,43.2,98,98,98,30.09,29.95,10,4,0,0.00
2013-5-7,73.9,63.4,50.2,73.3,62.8,49.7,98,98,98,30.01,29.85,8,4,0,0.02
2013-5-8,81.3,66.7,57.4,80.7,66.1,56.8,98,98,98,29.88,29.71,21,9,0,0.44
2013-5-9,66.2,63.0,58.1,65.6,62.4,57.5,98,98,98,29.86,29.76,7,4,0,0.00
2013-5-10,70.0,63.4,54.5,69.4,62.8,53.9,98,98,98,30.03,29.95,19,8,0,0.00
2013-5-11,67.6,58.8,48.6,67.0,58.0,48.1,98,97,89,30.21,30.03,25,8,0,0.00
2013-5-12,73.2,58.0,40.8,72.6,57.4,40.3,98,98,94,30.22,30.00,14,4,0,0.00
2013-5-13,86.7,63.4,48.7,86.1,62.9,48.2,98,98,98,30.03,29.89,9,3,0,0.00
2013-5-14,90.3,68.3,60.6,85.9,67.4,60.0,98,97,87,29.88,29.77,13,6,0,0.00
2013-5-15,74.1,68.7,64.4,73.5,68.1,63.8,98,98,98,29.80,29.75,8,6,0,0.00
2013-5-16,80.1,70.0,61.5,79.5,69.4,60.9,98,98,98,29.79,29.72,7,3,0,0.00
2013-5-17,84.6,74.2,59.9,84.0,73.7,59.3,98,98,98,29.80,29.76,9,5,0,0.00
2013-5-18,86.2,82.1,79.3,85.6,81.5,78.7,98,98,98,29.65,29.55,14,10,0,0.00
2013-5-19,85.5,68.0,62.1,84.9,67.4,61.5,98,98,98,29.63,29.41,16,6,0,0.63
2013-5-20,87.8,71.7,57.7,87.2,71.1,57.1,98,98,98,29.71,29.56,12,5,0,0.00
2013-5-21,75.4,63.9,55.6,74.8,63.3,55.0,98,98,98,29.78,29.67,14,6,0,0.00
2013-5-22,82.9,70.6,54.1,82.3,70.0,53.5,98,98,98,29.88,29.74,9,4,0,0.00
2013-5-23,66.6,60.4,56.7,66.0,59.8,56.1,98,98,98,30.10,29.88,15,6,0,0.00
2013-5-24,81.7,73.6,63.0,81.1,73.0,62.4,98,98,98,30.14,29.99,17,7,0,0.00
2013-5-25,85.6,74.8,65.8,85.0,74.2,65.2,98,98,98,30.05,29.89,17,9,0,0.00
2013-5-26,84.0,74.1,66.0,83.4,73.5,65.4,98,98,98,29.94,29.77,18,9,0,0.00
2013-5-27,84.0,75.8,71.4,83.4,75.2,70.8,98,98,98,29.77,29.53,23,11,0,0.00
2013-5-28,85.5,76.2,71.8,84.9,75.6,71.2,98,98,98,29.69,29.54,20,10,0,0.00
2013-5-29,81.3,72.3,61.9,80.7,71.7,61.3,98,98,98,29.65,29.47,22,12,0,0.27
2013-5-30,86.7,69.2,58.3,86.1,68.6,57.7,98,98,98,29.66,29.48,21,6,0,2.62
2013-5-31,82.2,77.5,68.4,81.6,76.9,67.8,98,98,98,29.68,29.56,19,7,0,0.00
2013-6-1,71.8,67.8,61.5,71.2,67.2,60.9,98,98,98,29.98,29.65,21,10,0,0.00
2013-6-2,76.6,62.4,52.2,76.0,61.8,51.7,98,98,98,30.08,29.92,19,8,0,0.00
2013-6-3,83.5,67.3,52.5,82.9,66.7,52.0,98,98,98,29.95,29.72,14,6,0,0.00
2013-6-4,88.7,76.2,66.9,88.1,75.6,66.3,98,98,98,29.85,29.59,34,6,0,0.00
2013-6-5,74.8,68.8,63.5,74.2,68.2,62.9,98,98,98,29.93,29.74,19,9,0,0.50
2013-6-6,74.7,64.2,58.1,74.1,63.6,57.5,98,98,98,29.95,29.89,15,7,0,0.00
2013-6-7,85.1,76.2,65.5,84.5,75.6,64.9,98,98,98,29.95,29.82,7,2,0,0.00
2013-6-8,79.2,74.8,62.8,78.6,74.2,62.2,98,98,98,29.79,29.68,16,8,0,0.04
2013-6-9,90.0,79.6,60.1,89.4,78.9,59.5,98,98,95,29.84,29.74,14,6,0,0.00
2013-6-10,101.3,79.3,64.6,99.9,78.6,64.0,98,98,98,29.81,29.70,12,4,0,0.00
2013-6-11,98.6,85.1,70.0,95.3,83.1,69.4,98,94,72,29.82,29.69,20,10,0,0.00
2013-6-12,104.4,87.6,74.1,99.9,86.7,73.5,98,97,91,29.89,29.72,18,8,0,0.00
2013-6-13,94.6,80.0,65.7,93.9,79.4,65.1,98,98,94,30.02,29.87,21,7,0,0.00
2013-6-14,101.1,85.5,70.0,99.9,84.6,69.4,98,97,80,29.90,29.75,17,7,0,0.00
2013-6-15,91.6,81.2,73.4,91.0,80.6,72.8,98,98,98,29.91,29.78,19,6,0,0.00
2013-6-16,98.4,80.0,70.2,97.7,79.4,69.6,98,98,98,29.91,29.79,12,5,0,0.00
2013-6-17,87.3,75.1,65.8,86.7,74.5,65.2,98,98,98,29.96,29.73,16,5,0,1.00
2013-6-18,97.2,79.3,64.9,96.2,78.6,64.3,98,98,91,29.98,29.85,13,3,0,0.00
2013-6-19,88.9,77.8,66.0,88.3,77.2,65.4,98,98,98,29.96,29.82,19,6,0,0.16
2013-6-20,95.2,83.2,71.6,94.5,82.6,71.0,98,98,98,29.88,29.75,19,10,0,0.00
2013-6-21,96.4,85.5,77.4,95.7,84.9,76.8,98,98,98,29.87,29.77,18,10,0,0.00
2013-6-22,94.5,84.7,75.0,93.8,84.0,74.4,98,98,98,29.87,29.73,17,10,0,0.00
2013-6-23,95.7,84.5,76.3,95.0,83.9,75.7,98,98,98,29.81,29.71,18,10,0,0.00
2013-6-24,93.7,84.3,75.9,93.0,83.7,75.3,98,98,98,29.84,29.71,18,9,0,0.00
2013-6-25,96.3,84.9,77.0,95.6,84.3,76.4,98,98,98,29.83,29.60,23,11,0,0.00
2013-6-26,106.5,89.9,74.8,99.9,88.4,74.2,98,98,89,29.81,29.68,9,4,0,0.00
2013-6-27,108.0,82.7,70.7,99.9,81.7,70.1,98,98,98,29.90,29.71,18,4,0,0.42
2013-6-28,94.6,82.3,70.7,90.4,79.9,70.1,98,93,77,29.98,29.82,16,7,0,0.00
2013-6-29,89.4,79.9,68.9,81.0,75.2,68.3,98,87,71,29.92,29.78,24,9,0,0.00
2013-6-30,82.6,73.6,62.1,77.7,71.2,61.5,98,93,79,29.98,29.86,19,8,0,0.00
2013-7-1,83.3,72.8,59.9,74.5,68.7,59.3,98,88,70,30.07,29.98,19,8,0,0.00
2013-7-2,87.3,73.5,60.3,77.8,68.3,59.7,98,86,57,30.07,29.97,16,6,0,0.00
2013-7-3,93.4,74.7,57.4,78.8,69.0,56.8,98,84,58,30.04,29.89,11,3,0,0.00
2013-7-4,94.8,76.9,59.9,82.7,72.5,59.3,98,88,63,29.95,29.82,11,3,0,0.00
2013-7-5,93.0,80.6,65.8,83.6,76.6,65.2,98,89,68,29.89,29.76,19,8,0,0.00
2013-7-6,83.7,76.6,72.1,83.1,76.0,71.5,98,98,98,29.86,29.76,14,6,0,0.02
2013-7-7,99.9,85.9,74.1,91.4,82.3,73.5,98,90,71,29.91,29.80,16,8,0,0.00
2013-7-8,102.4,86.6,75.4,92.6,83.6,74.8,98,92,68,29.97,29.85,13,7,0,0.00
2013-7-9,108.0,91.7,77.2,94.5,86.0,76.6,98,85,59,29.93,29.76,16,8,0,0.00
2013-7-10,104.4,89.5,74.1,93.0,85.1,73.5,98,88,68,29.94,29.83,13,5,0,0.00
2013-7-11,97.2,84.0,77.4,92.5,83.1,76.8,98,97,86,30.00,29.82,21,6,0,0.00
2013-7-12,102.4,87.5,72.7,93.6,84.4,72.1,98,91,73,29.91,29.80,11,5,0,0.00
2013-7-13,104.4,89.2,75.4,95.7,86.6,74.8,98,92,77,29.92,29.79,13,6,0,0.00
2013-7-14,86.9,74.7,68.9,86.3,74.1,68.3,98,98,98,30.01,29.84,18,4,0,1.02
2013-7-15,81.3,71.1,65.5,80.7,70.5,64.9,98,98,98,30.11,29.98,17,4,0,0.52
2013-7-16,94.6,78.8,65.3,93.6,78.2,64.7,98,98,96,30.22,30.10,11,4,0,0.05
2013-7-17,96.8,82.3,69.6,96.1,81.6,69.0,98,98,94,30.25,30.12,8,3,0,0.00
2013-7-18,95.4,82.6,68.9,94.7,81.9,68.3,98,98,94,30.16,29.94,13,4,0,0.00
2013-7-19,99.0,85.1,71.2,94.4,83.5,70.6,98,95,85,29.97,29.79,14,5,0,0.00
2013-7-20,99.5,82.6,72.0,94.9,80.9,71.4,98,95,78,29.86,29.72,21,6,0,0.02
2013-7-21,94.6,80.7,68.7,93.9,80.1,68.1,98,98,98,29.83,29.70,10,5,0,0.09
2013-7-22,89.4,78.4,72.7,88.8,77.8,72.1,98,98,98,29.84,29.69,13,4,0,0.11
2013-7-23,97.0,82.7,72.9,96.3,82.1,72.3,98,98,98,29.89,29.69,16,6,0,0.92
2013-7-24,90.9,79.5,71.6,89.9,78.8,71.0,98,98,90,29.98,29.82,12,5,0,0.02
2013-7-25,90.7,78.8,68.2,90.1,78.2,67.6,98,98,98,29.99,29.91,12,4,0,0.00
2013-7-26,86.4,76.1,66.7,85.8,75.5,66.1,98,98,97,30.00,29.88,25,7,0,1.70
2013-7-27,84.7,72.7,62.4,84.1,72.1,61.8,98,98,98,30.05,29.89,13,6,0,0.04
2013-7-28,66.9,63.4,60.6,66.3,62.8,60.0,98,98,98,29.98,29.87,14,5,0,1.79
2013-7-29,85.5,74.0,64.2,84.9,73.4,63.6,98,98,98,29.91,29.77,14,7,0,0.06
2013-7-30,82.9,75.6,70.9,82.3,75.0,70.3,98,98,98,30.01,29.85,9,4,0,0.01
2013-7-31,91.9,78.7,68.4,91.3,78.1,67.8,98,98,98,30.07,29.98,9,4,0,0.00
2013-8-1,93.4,80.4,67.3,92.7,79.8,66.7,98,98,98,30.06,29.85,9,4,0,0.00
2013-8-2,100.0,82.6,70.5,99.3,81.9,69.9,98,98,98,29.86,29.73,16,6,0,1.46
2013-8-3,89.8,79.9,72.0,89.2,79.3,71.4,98,98,98,29.98,29.81,11,6,0,0.54
2013-8-4,79.3,74.5,71.6,78.7,73.9,71.0,98,98,98,30.05,29.91,10,5,0,3.67
2013-8-5,95.9,81.4,70.7,95.2,80.8,70.1,98,98,98,29.91,29.70,14,6,0,0.12
2013-8-6,98.6,84.4,70.5,97.9,83.8,69.9,98,98,98,29.82,29.67,9,4,0,0.04
2013-8-7,93.9,81.1,72.0,93.2,80.5,71.4,98,98,98,29.85,29.68,15,5,0,0.06
2013-8-8,86.9,75.6,67.8,86.3,75.0,67.2,98,98,98,29.90,29.74,14,5,0,1.45
2013-8-9,75.9,69.9,63.9,75.3,69.3,63.3,98,98,98,30.06,29.86,15,7,0,0.20
2013-8-10,92.1,76.0,63.3,91.4,75.4,62.7,98,98,98,30.12,29.99,10,4,0,0.00
2013-8-11,92.8,79.4,66.7,92.1,78.8,66.1,98,98,98,30.06,29.93,8,2,0,0.00
2013-8-12,95.2,79.0,68.2,94.5,78.4,67.6,98,98,98,30.00,29.88,13,4,0,0.53
2013-8-13,90.3,73.4,67.6,89.7,72.8,67.0,98,98,98,30.05,29.91,20,4,0,1.16
2013-8-14,88.3,73.2,62.1,87.0,72.6,61.5,98,98,96,30.10,29.98,8,3,0,0.01
2013-8-15,86.4,71.7,62.4,85.8,71.1,61.8,98,98,98,30.03,29.88,23,4,0,0.65
2013-8-16,89.4,72.3,61.0,88.8,71.7,60.4,98,98,98,30.06,29.95,7,3,0,0.01
2013-8-17,87.6,73.4,61.2,87.0,72.9,60.6,99,98,98,30.10,29.99,11,4,0,0.00
2013-8-18,87.4,73.8,60.3,87.1,73.5,60.0,99,99,99,30.08,29.96,9,3,0,0.00
2013-8-19,91.0,77.3,64.4,90.7,77.0,64.1,99,99,99,30.02,29.90,12,5,0,0.00
2013-8-20,94.5,79.5,66.4,93.8,79.0,66.1,99,99,98,29.98,29.89,11,5,0,0.00
2013-8-21,95.9,80.8,68.0,92.9,79.6,67.4,98,96,86,29.98,29.91,12,5,0,0.00
2013-8-22,94.5,81.1,67.3,92.9,80.4,66.7,98,98,91,30.00,29.91,8,4,0,0.00
2013-8-23,96.4,83.0,71.2,95.7,82.3,70.6,98,98,98,29.97,29.87,12,5,0,0.00
2013-8-24,96.3,83.1,71.1,95.6,82.5,70.5,98,98,98,30.04,29.94,13,5,0,0.00
2013-8-25,97.5,83.4,71.4,96.8,82.8,70.8,98,98,98,30.11,30.01,12,5,0,0.00
2013-8-26,97.5,83.6,72.1,95.1,82.8,71.5,98,98,92,30.10,29.98,12,6,0,0.00
2013-8-27,95.9,82.2,68.7,93.2,80.3,68.1,98,94,79,30.01,29.91,16,5,0,0.00
2013-8-28,96.1,81.8,67.1,95.4,81.2,66.5,98,98,98,29.98,29.90,9,4,0,0.00
2013-8-29,102.7,85.9,72.0,95.1,82.9,71.4,98,91,70,29.96,29.85,9,4,0,0.00
2013-8-30,106.9,87.1,70.0,96.2,82.9,69.4,98,89,58,29.89,29.75,7,3,0,0.00
2013-8-31,107.6,87.8,69.8,99.1,84.6,69.2,98,92,64,29.80,29.67,12,3,0,0.00
2013-9-1,88.5,80.7,73.6,87.9,80.1,73.0,98,98,98,29.91,29.69,17,5,0,0.00
2013-9-2,90.9,75.5,61.7,85.0,73.8,61.1,98,95,81,30.00,29.90,12,3,0,0.00
2013-9-3,96.4,77.0,59.5,86.9,74.4,58.9,98,93,71,30.02,29.91,9,2,0,0.00
2013-9-4,97.0,77.7,58.5,86.8,73.9,57.9,98,90,61,30.08,29.97,7,2,0,0.00
2013-9-5,99.3,81.4,65.1,92.0,79.0,64.5,98,93,70,30.09,29.98,8,3,0,0.00
2013-9-6,99.7,83.0,68.0,92.4,81.1,67.4,98,94,79,30.04,29.88,11,4,0,0.00
2013-9-7,103.5,85.1,69.3,94.0,81.9,68.7,98,91,67,29.92,29.80,10,4,0,0.00
2013-9-8,101.7,85.6,69.8,92.6,81.5,69.2,98,89,66,29.86,29.75,12,4,0,0.00
2013-9-9,95.9,83.2,68.0,89.7,79.1,67.4,98,89,62,29.87,29.78,17,6,0,0.00
2013-9-10,96.1,82.2,68.2,89.6,79.2,67.6,98,91,70,30.00,29.85,14,6,0,0.00
2013-9-11,98.4,81.7,68.4,91.4,79.4,67.8,98,93,75,30.05,29.93,10,3,0,0.00
2013-9-12,82.2,75.9,72.7,81.6,75.3,72.1,98,98,98,30.09,29.98,14,7,0,0.00
2013-9-13,81.3,72.8,67.3,76.3,70.8,66.7,98,94,83,30.07,29.94,13,7,0,0.00
2013-9-14,88.3,73.4,60.4,86.0,72.6,59.8,98,98,93,29.97,29.82,14,5,0,0.00
2013-9-15,96.1,76.7,64.6,90.7,75.3,64.0,98,96,82,30.01,29.83,20,6,0,0.97
2013-9-16,80.8,70.6,65.8,80.2,70.0,65.2,98,98,98,30.10,29.98,18,6,0,0.04
2013-9-17,85.3,73.6,66.2,84.7,72.9,65.6,98,98,93,30.06,29.84,15,6,0,0.44
2013-9-18,93.2,79.9,69.8,92.5,79.2,69.2,98,98,92,29.86,29.70,21,8,0,0.00
2013-9-19,92.8,77.6,65.3,92.1,76.9,61.7,98,98,88,29.91,29.69,21,8,0,3.34
2013-9-20,73.9,65.7,56.7,73.3,65.1,56.1,98,98,94,30.01,29.87,16,7,0,0.00
2013-9-21,87.1,67.7,50.2,81.5,65.9,49.7,98,95,80,29.96,29.81,10,1,0,0.00
2013-9-22,81.7,66.7,53.4,77.1,64.9,52.8,98,94,79,29.88,29.72,11,4,0,0.00
2013-9-23,81.1,68.2,55.4,78.2,67.2,54.8,98,97,90,29.75,29.62,18,7,0,0.00
2013-9-24,77.7,67.9,57.7,77.1,67.3,57.1,98,98,98,29.83,29.70,20,8,0,0.00
2013-9-25,86.4,69.5,52.7,83.3,68.5,52.2,98,97,88,29.84,29.66,11,3,0,0.00
2013-9-26,91.8,80.8,64.0,87.0,78.2,63.4,98,92,81,29.73,29.65,20,9,0,0.00
2013-9-27,88.3,78.8,67.6,87.3,78.0,67.0,98,98,93,29.80,29.68,18,9,0,0.00
2013-9-28,76.6,65.2,50.4,76.0,64.2,49.9,98,97,87,30.03,29.66,20,9,0,0.69
2013-9-29,81.9,62.1,45.3,72.0,58.9,44.8,98,91,69,30.04,29.84,7,2,0,0.00
2013-9-30,82.4,63.3,47.7,77.4,62.1,47.2,98,96,85,29.80,29.70,6,2,0,0.00
2013-10-1,87.3,76.9,56.3,86.7,76.3,55.7,98,98,98,29.84,29.78,10,5,0,0.00
2013-10-2,84.2,73.5,65.1,83.6,72.4,57.3,98,96,69,29.87,29.74,13,6,0,0.00
2013-10-3,88.7,82.4,70.7,88.1,81.8,70.1,98,98,98,29.68,29.58,20,10,0,0.00
2013-10-4,88.3,70.5,57.4,87.7,69.9,56.6,98,98,96,29.91,29.62,29,11,0,0.12
2013-10-5,64.6,54.4,48.0,57.9,52.0,47.5,98,92,77,30.06,29.91,24,12,0,0.00
2013-10-6,69.1,55.4,45.3,62.4,51.5,44.8,98,88,53,29.98,29.89,20,10,0,0.00
2013-10-7,79.7,58.4,40.3,65.8,54.3,39.8,98,88,61,30.12,29.98,6,2,0,0.00
2013-10-8,77.9,61.9,46.8,71.2,59.9,46.3,98,94,78,30.00,29.86,15,7,0,0.00
2013-10-9,81.7,65.7,52.0,77.9,64.6,51.5,98,96,84,29.94,29.84,14,7,0,0.00
2013-10-10,82.6,68.6,56.7,82.0,68.0,56.1,98,98,98,29.91,29.70,18,8,0,0.00
2013-10-11,84.0,67.0,61.7,74.4,63.8,58.1,98,91,47,29.81,29.62,16,8,0,0.00
2013-10-12,72.9,61.9,52.7,63.5,58.6,52.2,98,90,68,30.15,29.81,20,9,0,0.00
2013-10-13,72.7,61.0,48.7,71.3,59.7,48.2,98,96,81,30.25,30.12,16,6,0,0.00
2013-10-14,64.6,61.8,57.9,64.0,61.2,57.3,98,98,98,30.11,29.74,20,8,0,0.07
2013-10-15,60.4,54.2,46.2,59.8,53.6,45.7,98,98,98,30.07,29.93,20,12,0,0.04
2013-10-16,54.5,48.8,39.0,53.9,48.3,38.5,98,98,98,30.09,29.96,9,5,0,0.00
2013-10-17,68.0,54.5,38.3,62.6,50.3,20.4,98,87,48,29.97,29.85,14,4,0,0.00
2013-10-18,43.5,37.8,31.5,40.2,34.3,20.8,88,87,64,30.09,29.99,15,7,0,0.05
2013-10-19,66.2,41.3,28.6,59.4,32.8,7.5,88,73,38,30.07,29.85,12,4,0,0.01
2013-10-20,60.6,51.4,41.0,57.0,47.9,37.7,88,88,88,29.87,29.77,11,4,0,0.00
2013-10-21,63.3,52.5,45.5,55.2,48.0,42.2,88,85,73,30.07,29.87,16,7,0,0.00
2013-10-22,70.2,56.5,42.6,62.1,51.7,39.3,88,84,73,30.03,29.91,22,8,0,0.00
2013-10-23,70.2,46.8,35.6,62.6,43.4,32.4,88,88,77,30.08,29.93,11,3,0,0.00
2013-10-24,55.2,47.4,39.4,49.6,43.4,36.1,88,86,76,30.35,30.04,17,7,0,0.00
2013-10-25,61.0,46.8,29.1,53.3,41.6,26.0,88,83,60,30.37,30.08,14,5,0,0.00
2013-10-26,66.0,52.9,40.1,59.5,47.3,36.8,88,82,53,30.11,30.02,16,5,0,0.14
2013-10-27,68.5,47.1,28.2,56.6,41.4,25.1,88,82,57,30.10,29.85,11,3,0,0.00
2013-10-28,67.8,58.6,42.8,64.1,51.0,-0.2,88,80,12,30.00,29.87,16,6,0,0.00
2013-10-29,72.0,67.1,59.7,68.2,61.0,26.6,88,82,28,29.88,29.81,10,6,0,0.02
2013-10-30,68.2,57.9,52.3,64.5,54.4,48.9,88,88,88,29.78,29.63,14,9,0,0.18
2013-10-31,64.4,55.0,47.8,60.8,51.5,44.4,88,88,86,29.67,29.55,21,7,0,0.22
2013-11-1,62.1,50.2,42.4,58.5,46.8,39.1,88,88,87,30.00,29.66,17,5,0,0.00
2013-11-2,62.6,57.1,42.6,50.7,48.3,39.3,88,73,62,30.20,30.09,12,6,0,0.00
2013-11-3,59.2,56.4,53.4,55.0,52.8,49.9,88,88,86,29.91,29.74,18,14,0,0.00
2013-11-4,66.2,57.3,48.9,62.5,53.8,45.5,88,88,88,29.97,29.80,7,2,0,0.00
2013-11-5,60.8,56.9,44.8,57.2,53.4,41.5,88,88,88,29.95,29.76,25,8,0,0.60
2013-11-6,48.7,39.9,32.9,45.3,36.7,29.7,88,88,88,30.27,30.00,21,8,0,0.00
2013-11-7,65.7,44.4,30.0,55.4,39.9,26.9,88,84,66,30.37,30.23,9,2,0,0.00
2013-11-8,65.8,56.2,39.2,57.2,50.3,36.0,88,81,64,30.22,29.81,30,12,0,0.00
2013-11-9,68.2,52.6,37.8,63.8,49.1,34.6,88,88,85,30.21,29.91,10,3,0,0.00
2013-11-10,65.3,52.8,41.0,61.7,49.4,37.7,88,88,88,30.30,30.16,12,5,0,0.00
2013-11-11,58.3,48.5,29.3,54.8,45.2,26.2,88,88,88,30.56,30.09,24,9,0,0.00
2013-11-12,37.0,27.4,19.6,25.8,22.4,16.6,88,82,60,30.81,30.57,22,8,0,0.00
2013-11-13,50.0,34.8,18.7,42.0,29.6,15.7,88,81,73,30.61,30.11,17,8,0,0.00
2013-11-14,56.7,44.0,34.7,49.9,39.9,31.5,88,86,77,30.10,29.85,18,9,0,0.00
2013-11-15,61.7,48.7,34.3,58.1,45.3,31.1,88,88,88,29.87,29.57,14,6,0,0.00
2013-11-16,76.3,64.4,53.1,72.5,60.8,49.6,88,88,88,29.57,29.30,22,12,0,0.00
2013-11-17,66.2,57.6,49.1,60.4,45.2,31.3,88,67,33,30.02,29.31,30,12,0,0.00
2013-11-18,64.9,47.6,30.4,46.2,36.7,27.3,88,69,39,30.22,30.01,12,3,0,0.00
2013-11-19,60.1,50.6,41.9,51.4,43.6,38.6,88,78,64,30.14,29.80,20,9,0,0.00
2013-11-20,61.2,54.7,50.2,57.6,50.0,42.5,88,84,73,29.82,29.70,17,8,0,0.00
2013-11-21,54.0,38.1,24.8,50.5,34.9,21.8,88,88,88,30.43,29.81,28,14,0,0.40
2013-11-22,28.8,25.5,22.5,25.7,22.4,19.5,88,88,88,30.59,30.43,24,14,0,0.00
2013-11-23,34.3,29.4,20.7,31.1,25.5,17.7,88,85,73,30.68,30.54,21,11,0,0.00
2013-11-24,29.1,23.4,18.0,24.3,20.0,15.1,88,87,76,30.65,30.22,9,5,0,0.00
2013-11-25,35.2,30.1,27.0,32.0,27.0,23.8,88,88,87,30.22,30.10,11,4,0,0.00
2013-11-26,39.4,31.5,24.4,36.1,27.3,19.1,88,84,71,30.38,30.12,25,10,0,0.00
2013-11-27,38.8,24.9,13.5,31.9,20.8,10.6,88,84,74,30.39,30.11,11,4,0,0.00
2013-11-28,48.0,35.0,22.6,44.6,31.8,19.6,88,88,88,30.24,30.10,11,4,0,0.00
2013-11-29,54.9,40.4,22.6,49.2,36.4,19.6,88,86,78,30.34,30.09,16,6,0,0.00
2013-11-30,62.8,43.6,31.5,57.4,40.0,28.4,88,87,80,30.10,30.00,9,3,0,0.00
2013-12-1,65.5,39.4,28.6,59.2,36.0,25.5,88,87,79,30.04,29.81,4,1,0,0.00
2013-12-2,56.7,39.5,29.7,53.2,26.6,-31.5,88,72,5,29.69,29.53,5,2,0,0.00
2013-12-3,63.0,51.8,32.2,59.4,44.0,10.6,88,76,34,29.50,29.37,8,4,0,0.00
2013-12-4,36.3,28.4,25.0,33.1,25.3,22.0,88,88,88,29.89,29.51,17,11,0,0.00
2013-12-5,17.8,17.4,16.0,14.5,13.7,12.6,88,85,82,30.26,30.18,14,10,0,0.00
2013-12-6,20.8,15.7,10.0,11.3,8.0,4.2,86,71,64,30.56,30.29,14,12,0,0.00
2013-12-7,22.5,11.0,5.0,14.1,6.9,2.2,88,84,67,30.59,30.23,14,9,0,0.00
2013-12-8,23.0,22.5,19.4,20.0,19.5,16.4,88,88,88,30.06,29.85,10,5,0,0.00
2013-12-9,16.0,15.1,12.4,13.1,12.1,9.3,88,88,87,30.30,30.23,8,4,0,0.00
2013-12-10,40.6,26.7,6.8,33.6,21.8,4.0,88,82,70,30.30,30.06,10,5,0,0.00
2013-12-11,31.3,27.5,16.0,25.5,22.4,13.1,88,81,68,30.56,30.30,20,11,0,0.00
2013-12-12,46.4,32.7,15.1,39.4,28.2,12.2,88,84,71,30.42,30.06,14,8,0,0.00
2013-12-13,45.5,38.8,30.4,42.2,35.6,27.3,88,88,88,30.05,29.66,18,5,0,0.00
2013-12-14,38.3,28.9,19.0,35.1,25.8,16.0,88,88,88,30.18,29.82,21,7,0,0.00
2013-12-15,61.3,36.8,17.6,47.5,31.0,14.7,88,81,58,30.16,29.96,12,4,0,0.00
2013-12-16,63.7,36.1,26.6,48.4,31.8,23.5,88,85,55,30.07,29.96,9,2,0,0.00
2013-12-17,55.8,37.4,26.1,47.9,32.3,23.0,88,82,56,30.27,30.06,18,4,0,0.00
2013-12-18,66.4,47.1,28.8,57.0,42.6,25.7,88,85,69,30.16,29.69,18,8,0,0.00
2013-12-19,62.2,52.8,44.6,58.6,49.4,41.3,88,88,88,29.68,29.49,17,8,0,0.00
2013-12-20,35.8,21.1,16.7,32.6,18.1,13.8,88,88,88,29.92,29.64,21,11,0,0.00
2013-12-21,27.0,23.8,22.3,23.9,20.8,19.3,88,88,88,29.75,29.49,13,8,0,0.00
2013-12-22,25.0,20.9,9.9,22.0,17.9,7.1,88,88,88,30.27,29.86,11,6,0,0.00
2013-12-23,16.7,14.2,7.7,13.8,11.3,4.9,88,88,88,30.52,30.35,9,1,0,0.00
2013-12-24,31.5,22.4,14.5,28.4,19.4,11.6,88,88,88,30.47,30.06,12,5,0,0.00
2013-12-25,42.3,30.7,20.8,39.0,27.5,17.8,88,88,88,30.33,30.19,8,2,0,0.29
2013-12-26,48.0,38.7,26.6,44.6,35.4,23.5,88,88,88,30.26,30.15,11,4,0,0.00
2013-12-27,37.2,33.6,28.6,34.0,30.5,25.5,88,88,88,30.29,30.28,2,1,0,0.00
2013-12-28,43.7,40.1,33.8,40.4,36.8,30.6,88,88,88,30.11,29.82,12,5,0,0.00
2013-12-29,41.5,19.1,11.1,38.2,14.0,7.9,88,80,68,30.28,29.87,24,11,0,0.01
2013-12-30,36.1,21.3,7.7,32.0,17.5,4.9,88,85,78,30.26,30.13,11,4,0,0.00
2013-12-31,52.7,37.7,20.8,45.8,33.6,17.8,88,86,74,30.25,29.97,17,7,0,0.00
2014-1-1,38.8,26.2,12.7,35.6,23.1,9.8,88,88,88,30.29,29.86,25,11,0,0.00
2014-1-2,33.1,19.0,6.3,29.9,16.0,3.5,88,88,88,30.40,30.29,18,5,0,0.00